Weather History for Valparaiso, IN

Change the Weather History Date:

Wednesday, October 24, 2012

  Actual Average Record
Temperature  
Mean Temperature 69 °F 50 °F  
Max Temperature 79 °F 60 °F 79 °F (2012)
Min Temperature 59 °F 40 °F 30 °F (1999)
Degree Days  
Heating Degree Days 0 15  
Month to date heating degree days 300 287  
Since 1 July heating degree days 435 417  
Cooling Degree Days 4 0  
Month to date cooling degree days 5 11  
Year to date cooling degree days 1054 713  
Growing Degree Days 18 (Base 50)    
Moisture  
Dew Point 59 °F    
Average Humidity 76    
Maximum Humidity 96    
Minimum Humidity 60    
Precipitation  
Precipitation 0.00 in 0.11 in 0.92 in (2001)
Month to date precipitation 2.57 2.56  
Year to date precipitation 23.25 31.31  
Sea Level Pressure  
Sea Level Pressure 29.95 in    
Wind  
Wind Speed 9 mph (South)    
Max Wind Speed 17 mph    
Max Gust Speed 22 mph    
Visibility 10 miles    
Events      
T = Trace of Precipitation, MM = Missing Value Source: NWS Daily Summary

Daily Weather History Graph

Daily Weather History Graph

Search for Another Location

Airport:

Trip Planner

Search our weather history database for the weather conditions in past years. The results will help you decide how hot, cold, wet, or windy it might be!

Date:

Astronomy

Oct. 24, 2012 Rise Set
Actual Time 7:10 AM CDT 5:52 PM CDT
Civil Twilight 6:42 AM CDT 6:21 PM CDT
Nautical Twilight 6:10 AM CDT 6:53 PM CDT
Astronomical Twilight 5:37 AM CDT 7:25 PM CDT
Moon 3:11 PM CDT (10/24) 2:02 AM CDT (10/24)
Length of Visible Light 11h 38m
Length of Day
10h 42m
Waxing Gibbous, 76% of the Moon is Illuminated
Oct 24
Waxing Gibbous
Oct 29
Full
Nov 6
Last Quarter
Nov 13
New
Nov 20
First Quarter

Hourly Weather History & Observations

Time (CDT) Temp. Dew Point Humidity Pressure Visibility Wind Dir Wind Speed Gust Speed Precip Events Conditions
12:53 AM 60.1 °F 59.0 °F 96% 29.97 in 5.0 mi SE 3.5 mph - N/A   Overcast
1:53 AM 63.0 °F 57.9 °F 84% 29.96 in 10.0 mi South 4.6 mph - N/A   Overcast
2:53 AM 63.0 °F 57.9 °F 84% 29.96 in 10.0 mi South 4.6 mph - N/A   Overcast
3:53 AM 61.0 °F 57.0 °F 87% 29.96 in 10.0 mi South 5.8 mph - N/A   Scattered Clouds
4:53 AM 61.0 °F 57.0 °F 87% 29.96 in 10.0 mi SSW 3.5 mph - N/A   Scattered Clouds
5:53 AM 60.1 °F 55.9 °F 86% 29.96 in 10.0 mi South 6.9 mph - N/A   Clear
6:53 AM 59.0 °F 55.9 °F 90% 29.98 in 10.0 mi South 4.6 mph - N/A   Clear
7:53 AM 60.1 °F 55.9 °F 86% 29.99 in 10.0 mi South 5.8 mph - N/A   Clear
8:53 AM 63.0 °F 57.0 °F 81% 29.99 in 10.0 mi South 8.1 mph - N/A   Clear
9:53 AM 66.9 °F 57.9 °F 73% 29.99 in 10.0 mi South 9.2 mph - N/A   Clear
10:53 AM 71.1 °F 59.0 °F 66% 29.99 in 10.0 mi SSW 12.7 mph - N/A   Clear
11:53 AM 73.0 °F 60.1 °F 64% 29.97 in 10.0 mi SSW 12.7 mph - N/A   Clear
12:53 PM 75.0 °F 61.0 °F 62% 29.95 in 10.0 mi South 9.2 mph - N/A   Clear
1:53 PM 77.0 °F 62.1 °F 60% 29.93 in 10.0 mi South 11.5 mph - N/A   Clear
2:53 PM 78.1 °F 63.0 °F 60% 29.91 in 10.0 mi South 11.5 mph - N/A   Partly Cloudy
3:53 PM 78.1 °F 63.0 °F 60% 29.90 in 10.0 mi South 12.7 mph - N/A   Partly Cloudy
4:53 PM 75.9 °F 63.0 °F 64% 29.91 in 10.0 mi South 15.0 mph 19.6 mph N/A   Clear
5:53 PM 73.9 °F 62.1 °F 66% 29.91 in 10.0 mi South 6.9 mph - N/A   Clear
6:53 PM 71.1 °F 61.0 °F 70% 29.93 in 10.0 mi South 6.9 mph - N/A   Clear
7:53 PM 69.1 °F 61.0 °F 75% 29.94 in 10.0 mi South 8.1 mph - N/A   Partly Cloudy
8:53 PM 66.9 °F 61.0 °F 81% 29.93 in 10.0 mi South 6.9 mph - N/A   Clear
9:53 PM 66.9 °F 60.1 °F 79% 29.92 in 10.0 mi South 8.1 mph - N/A   Clear
10:53 PM 66.9 °F 59.0 °F 76% 29.92 in 10.0 mi South 9.2 mph - N/A   Clear
11:53 PM 66.0 °F 59.0 °F 78% 29.91 in 10.0 mi South 10.4 mph - N/A   Clear